Weather History for Destin, FL

Change the Weather History Date:

Friday, July 26, 2013

  Actual Average Record
Temperature  
Mean Temperature 84 °F -  
Max Temperature 89 °F 87 °F 93 °F (2012)
Min Temperature 78 °F 74 °F 73 °F (2000)
Cooling Degree Days 18    
Growing Degree Days 34 (Base 50)    
Moisture  
Dew Point 73 °F    
Average Humidity 71    
Maximum Humidity 82    
Minimum Humidity 57    
Precipitation  
Precipitation 0.00 in - - ()
Sea Level Pressure  
Sea Level Pressure 30.00 in    
Wind  
Wind Speed 5 mph (West)    
Max Wind Speed 10 mph    
Max Gust Speed -    
Visibility 10 miles    
Events      
Averages and records for this station are not official NWS values.
T = Trace of Precipitation, MM = Missing Value Source: NWS Daily Summary

Daily Weather History Graph

Daily Weather History Graph

Search for Another Location

Airport:

Trip Planner

Search our weather history database for the weather conditions in past years. The results will help you decide how hot, cold, wet, or windy it might be!

Date:

Astronomy

Jul. 26, 2013 Rise Set
Actual Time 6:00 AM CDT 7:43 PM CDT
Civil Twilight 5:34 AM CDT 8:10 PM CDT
Nautical Twilight 5:02 AM CDT 8:41 PM CDT
Astronomical Twilight 4:28 AM CDT 9:15 PM CDT
Moon 10:23 PM CDT (7/26) 10:12 AM CDT (7/26)
Length of Visible Light 14h 35m
Length of Day
13h 43m
Waning Gibbous, 80% of the Moon is Illuminated
Jul 26
Waning Gibbous
Jul 29
Last Quarter
Aug 6
New
Aug 14
First Quarter
Aug 20
Full

Hourly Weather History & Observations

Time (CDT) Temp. Heat Index Dew Point Humidity Pressure Visibility Wind Dir Wind Speed Gust Speed Precip Events Conditions
12:53 AM 81.0 °F 85.8 °F 73.0 °F 77% 29.99 in 10.0 mi North 3.5 mph - N/A   Clear
1:53 AM 80.1 °F 84.2 °F 73.0 °F 79% 29.99 in 10.0 mi NNW 6.9 mph - N/A   Clear
2:53 AM 80.1 °F 84.2 °F 73.0 °F 79% 29.99 in 10.0 mi NNE 3.5 mph - N/A   Clear
3:53 AM 79.0 °F - 73.0 °F 82% 29.99 in 10.0 mi North 4.6 mph - N/A   Clear
4:53 AM 78.1 °F - 72.0 °F 81% 30.00 in 10.0 mi North 4.6 mph - N/A   Clear
5:53 AM 78.1 °F - 72.0 °F 81% 30.01 in 10.0 mi Calm Calm - N/A   Clear
6:53 AM 79.0 °F - 73.0 °F 82% 30.02 in 10.0 mi Calm Calm - N/A   Clear
7:53 AM 81.0 °F 85.2 °F 72.0 °F 74% 30.03 in 10.0 mi North 4.6 mph - N/A   Clear
8:53 AM 84.0 °F 89.6 °F 72.0 °F 67% 30.03 in 10.0 mi North 3.5 mph - N/A   Clear
9:53 AM 84.9 °F 90.1 °F 71.1 °F 63% 30.05 in 10.0 mi Calm Calm - N/A   Clear
10:53 AM 88.0 °F 93.8 °F 71.1 °F 57% 30.05 in 10.0 mi SSW 4.6 mph - N/A   Clear
11:53 AM 87.1 °F 92.0 °F 70.0 °F 57% 30.04 in 10.0 mi Variable 5.8 mph - N/A   Clear
12:53 PM 88.0 °F 94.7 °F 72.0 °F 59% 30.03 in 10.0 mi SW 6.9 mph - N/A   Clear
1:53 PM 88.0 °F 95.6 °F 73.0 °F 61% 30.02 in 10.0 mi SW 6.9 mph - N/A   Clear
2:53 PM 89.1 °F 98.0 °F 73.9 °F 61% 30.00 in 10.0 mi SW 8.1 mph - N/A   Clear
3:53 PM 88.0 °F 96.5 °F 73.9 °F 63% 29.99 in 10.0 mi WSW 9.2 mph - N/A   Clear
4:53 PM 88.0 °F 96.5 °F 73.9 °F 63% 29.98 in 10.0 mi WSW 10.4 mph - N/A   Clear
5:53 PM 87.1 °F 95.4 °F 73.9 °F 65% 29.97 in 10.0 mi WSW 8.1 mph - N/A   Clear
6:53 PM 86.0 °F 95.1 °F 75.0 °F 70% 29.98 in 10.0 mi WSW 6.9 mph - N/A   Clear
7:53 PM 84.9 °F 93.3 °F 75.0 °F 72% 29.97 in 10.0 mi WSW 5.8 mph - N/A   Clear
8:53 PM 84.9 °F 93.3 °F 75.0 °F 72% 29.98 in 10.0 mi WSW 6.9 mph - N/A   Clear
9:53 PM 84.0 °F 91.9 °F 75.0 °F 74% 29.98 in 10.0 mi Variable 4.6 mph - N/A   Clear
10:53 PM 84.0 °F 92.6 °F 75.9 °F 76% 29.98 in 10.0 mi Variable 3.5 mph - N/A   Clear
11:53 PM 82.9 °F 90.8 °F 75.9 °F 79% 29.97 in 10.0 mi Calm Calm - N/A   Clear